Regional Weather Roundup
Issued by NWS Northern Indiana

Home | Current Version | Previous Version | Text Only | Print | Product List | Glossary Off
Versions: 1 2 3 4 5 6 7 8 9 10 11 12 13 14 15 16 17 18 19 20 21 22 23 24 25 26 27 28 29 30 31 32 33 34 35 36 37 38 39 40 41 42 43 44 45 46 47 48 49 50

000
ASUS43 KIWX 262100
RWRIWX

KIWX WEATHER ROUNDUP
NATIONAL WEATHER SERVICE NORTHERN INDIANA
400 PM EST FRI DEC 26 2014

NOTE: "FAIR" INDICATES FEW OR NO CLOUDS BELOW 12,000 FEET WITH NO
SIGNIFICANT WEATHER AND/OR OBSTRUCTIONS TO VISIBILITY.

* THESE STATIONS ARE NOT UNDER NWS QUALITY CONTROL. THEY ALSO MAY NOT
  REPORT WEATHER SUCH AS PRECIPITATION OR FOG.

INZ001>027-262200-
NORTHERN INDIANA

CITY           SKY/WX    TMP DP  RH WIND       PRES   REMARKS
GARY*          PTSUNNY   52  36  54 SW8       30.02S
KNOX*          MOSUNNY   51  37  59 SW12G18   30.03R
SOUTH BEND     PTSUNNY   51  39  63 SW15      30.05R
ELKHART*       SUNNY     50  37  62 S7        30.05R
GOSHEN         MOSUNNY   48  40  73 S12       30.05S
WARSAW*        MOSUNNY   50  39  66 S3        30.06R
ANGOLA*        SUNNY     46  39  76 SW6       30.06R
FORT WAYNE     PTSUNNY   48  40  73 SW10      30.09S
PERU/GRISSOM   MOSUNNY   50  46  88 S13       30.08R

$$
INZ028>050-262200-
CENTRAL INDIANA

CITY           SKY/WX    TMP DP  RH WIND       PRES   REMARKS
LAFAYETTE      SUNNY     49  40  71 SW9G18    30.07R
KOKOMO*        MOSUNNY  N/A N/A N/A SW12G18   30.08R
MUNCIE*        MOSUNNY   49  39  68 S10       30.10R
INDIANAPOLIS   PTSUNNY   50  40  68 SW14      30.10S

$$
MIZ043>046-050>051-056>058-064>065-071>073-077>080-262200-
SOUTHWEST LOWER MICHIGAN

CITY           SKY/WX    TMP DP  RH WIND       PRES   REMARKS
BATTLE CREEK   MOSUNNY   48  37  65 S13       30.04S
BENTON HARBOR  PTSUNNY   49  38  65 S10       30.02R
COLDWATER*     MOSUNNY   47  37  68 S5        30.05R
HILLSDALE*     PTCLDY    46  38  74 S8        30.06R
HOLLAND        PTSUNNY   47  36  65 SW13      30.04R
GRAND RAPIDS   MOCLDY    46  36  68 SW9       30.03R
KALAMAZOO      MOSUNNY   49  37  63 S10       30.04R
STURGIS*       MOSUNNY   46  39  76 SW12      30.05R
THREE RIVERS*  FAIR      48  38  69 SW10G17   30.04S

$$
OHZ001>008-015>018-024>025-262200-
NORTHWEST OHIO

CITY           SKY/WX    TMP DP  RH WIND       PRES   REMARKS
DEFIANCE       MOSUNNY   48  39  71 SW10      30.10R
FINDLAY        MOSUNNY   49  39  68 S14       30.10S
TOLEDO EXPRESS MOCLDY    47  38  71 SW12      30.10R
TOLEDO METCALF PTCLDY    47  37  68 SW13      30.11R
LIMA           MOSUNNY   48  38  68 S10G18    30.11S

$$
AND FOR LAKE MICHIGAN COASTAL AND OPEN LAKE BUOY OBSERVATIONS

STATION/POSITION TEMP    WIND        PRES    VSBY  WAVE
                 AIR SEA DIR/SP/G                  HT/PER
                 (F)     (DEG/KT/KT) (MB)    (MI)  (FT/S)
CALUMET HARBOR    49     190/  8/ 12 1014.7F
MICHIGAN CITY     48     180/ 13/ 16   N/A
SAINT JOSEPH      45     180/  8/ 12 1017.3R
MICHIGAN CITY CG     37                N/A    3 1/2  1

$$
&&


USA.gov is the U.S. government's official web portal to all federal, state and local government web resources and services.